Limon, CO

8:08 AM MDT on July 22, 2017 (GMT -0600)
Limon Municipal

Weather History for KLIC - March, 2014

Change the Weather History Date:

Saturday, March 1, 2014

  Actual Average Record
Temperature  
Mean Temperature 14 °F -  
Max Temperature 24 °F - 73 °F (2008)
Min Temperature 4 °F - 1 °F (2015)
Degree Days  
Heating Degree Days 51    
Month to date heating degree days 51  
Cooling Degree Days 0    
Month to date cooling degree days 0  
Moisture  
Dew Point 13 °F    
Average Humidity 94    
Maximum Humidity 100    
Minimum Humidity 88    
Precipitation  
Precipitation T in - 0.04 in (2004)
Month to date precipitation T  
Year to date precipitation 1.17  
Sea Level Pressure  
Sea Level Pressure 29.95 in    
Wind  
Wind Speed 16 mph (SE)    
Max Wind Speed 51 mph    
Max Gust Speed 67 mph    
Visibility 2 miles    
Events Fog , Snow    
T = Trace of Precipitation, MM = Missing Value Source: NWS Daily Summary

Daily Weather History Graph

Daily Weather History Graph

Search for Another Location

Airport or City:

Trip Planner

Search our weather history database for the weather conditions in past years. The results will help you decide how hot, cold, wet, or windy it might be!

Date:

Astronomy

Mar. 01, 2014 Rise Set
Actual Time 6:27 AM MST 5:47 PM MST
Civil Twilight 6:00 AM MST 6:14 PM MST
Nautical Twilight 5:29 AM MST 6:45 PM MST
Astronomical Twilight 4:58 AM MST 7:16 PM MST
Moon 6:22 AM MST (3/1) 6:36 PM MST (3/1)
Length of Visible Light 12h 13m
Length of Day
11h 19m
New Moon, 0% of the Moon is Illuminated
Mar 1
New Moon
Mar 8
First Quarter
Mar 16
Full
Mar 23
Last Quarter
Mar 30
New

Hourly Weather History & Observations

Time (MST) Temp. Windchill Dew Point Humidity Pressure Visibility Wind Dir Wind Speed Gust Speed Precip Events Conditions
12:03 AM 24.1 °F 11.5 °F 24.1 °F 100% 29.86 in 3.0 mi SSE 15.0 mph - N/A   Overcast
12:55 AM 24.1 °F 9.4 °F 23.0 °F 96% 29.82 in 2.5 mi SSE 20.7 mph 26.5 mph N/A   Overcast
1:04 AM 24.1 °F 10.1 °F 23.0 °F 96% 29.85 in 3.0 mi SSE 18.4 mph 26.5 mph N/A   Overcast
1:55 AM 23.0 °F 8.7 °F 23.0 °F 100% 29.83 in 3.0 mi SSE 18.4 mph 26.5 mph N/A   Overcast
2:04 AM 23.0 °F 9.2 °F 23.0 °F 100% 29.83 in 2.5 mi SSE 17.3 mph - N/A   Overcast
2:14 AM 23.0 °F 7.6 °F 23.0 °F 100% 29.82 in 1.2 mi SSE 21.9 mph - N/A   Overcast
2:32 AM 23.0 °F 8.7 °F 23.0 °F 100% 29.82 in 2.5 mi SSE 18.4 mph 26.5 mph N/A   Overcast
2:55 AM 23.0 °F 9.2 °F 21.9 °F 96% 29.82 in 2.0 mi South 17.3 mph 26.5 mph N/A   Overcast
3:05 AM 21.9 °F 7.8 °F 21.9 °F 100% 29.82 in 1.0 mi SSE 17.3 mph 25.3 mph N/A   Overcast
3:23 AM 21.9 °F 7.8 °F 21.9 °F 100% 29.81 in 0.8 mi SSE 17.3 mph 26.5 mph N/A   Mist
3:55 AM 21.9 °F 8.2 °F 21.9 °F 100% 29.83 in 0.5 mi SSE 16.1 mph 23.0 mph N/A Fog Light Freezing Fog
4:55 AM 21.0 °F 6.6 °F 21.0 °F 100% 29.83 in 0.5 mi SSE 17.3 mph 24.2 mph N/A Fog Light Freezing Fog
5:55 AM 21.0 °F 6.2 °F 21.0 °F 100% 29.85 in 0.8 mi South 18.4 mph 26.5 mph N/A   Mist
6:55 AM 19.9 °F 3.9 °F 19.9 °F 100% 29.89 in 0.5 mi SSE 20.7 mph - N/A Fog Light Freezing Fog
7:55 AM 19.9 °F 5.7 °F 19.9 °F 100% 29.96 in 0.5 mi SE 16.1 mph - N/A Fog Light Freezing Fog
8:55 AM 18.0 °F - 18.0 °F 100% 29.99 in 0.5 mi North - - N/A Fog Light Freezing Fog
9:08 AM 18.0 °F 2.6 °F 18.0 °F 100% 29.89 in 0.2 mi SE 17.3 mph 23.0 mph N/A Fog Light Freezing Fog
9:17 AM 18.0 °F 1.3 °F 17.1 °F 96% 29.88 in 0.2 mi ESE 20.7 mph 66.7 mph N/A Fog Light Freezing Fog
9:28 AM 18.0 °F 0.6 °F 17.1 °F 96% 29.86 in 0.5 mi ESE 23.0 mph - N/A Fog Light Freezing Fog
9:55 AM 15.1 °F -0.6 °F 15.1 °F 100% 30.01 in 1.0 mi ESE 16.1 mph 38.0 mph N/A   Overcast
10:32 AM 14.0 °F 0.5 °F 12.9 °F 95% 29.92 in 3.0 mi East 11.5 mph - N/A   Overcast
10:41 AM 15.1 °F 1.1 °F 14.0 °F 95% 29.92 in 1.8 mi ESE 12.7 mph 20.7 mph N/A   Overcast
10:55 AM 15.1 °F 0.5 °F 14.0 °F 95% 30.06 in 0.8 mi ESE 13.8 mph - 0.00 in Snow Light Snow
11:03 AM 14.0 °F -0.2 °F 14.0 °F 100% 29.92 in 1.0 mi ESE 12.7 mph - 0.00 in Snow Light Snow
11:40 AM 14.0 °F 0.5 °F 12.0 °F 92% 29.92 in 1.5 mi East 11.5 mph - 0.00 in Snow Light Snow
11:55 AM 12.9 °F -0.2 °F 10.9 °F 92% 30.06 in 1.8 mi East 10.4 mph - 0.00 in Snow Light Snow
12:05 PM 12.9 °F -2.8 °F 10.9 °F 92% 29.93 in 1.2 mi ESE 15.0 mph - 0.00 in Snow Light Snow
12:55 PM 12.0 °F -4.0 °F 10.0 °F 92% 30.04 in 1.5 mi SE 15.0 mph - 0.00 in Snow Light Snow
1:48 PM 12.0 °F -2.0 °F 10.0 °F 92% 29.89 in 2.5 mi SE 11.5 mph - 0.00 in Snow Light Snow
1:55 PM 12.9 °F -2.2 °F 10.9 °F 92% 30.01 in 2.5 mi SE 13.8 mph - 0.00 in Snow Light Snow
2:06 PM 12.9 °F -1.6 °F 10.9 °F 92% 29.89 in 1.5 mi SSE 12.7 mph - 0.00 in Snow Light Snow
2:16 PM 12.9 °F -1.6 °F 10.9 °F 92% 29.89 in 2.0 mi SE 12.7 mph - 0.00 in Snow Light Snow
2:34 PM 12.0 °F -2.7 °F 10.0 °F 92% 29.90 in 4.0 mi SE 12.7 mph - 0.00 in Snow Light Snow
2:55 PM 12.9 °F -2.2 °F 10.9 °F 92% 30.03 in 2.5 mi SE 13.8 mph - 0.00 in Snow Light Snow
3:16 PM 12.9 °F -0.2 °F 10.9 °F 92% 29.90 in 3.0 mi SE 10.4 mph - 0.00 in Snow Light Snow
3:24 PM 12.0 °F -0.4 °F 10.9 °F 95% 29.90 in 2.5 mi SE 9.2 mph - 0.00 in Snow Light Snow
3:55 PM 12.0 °F -3.4 °F 10.0 °F 92% 30.07 in 3.0 mi SSE 13.8 mph - 0.00 in Snow Light Snow
4:05 PM 12.0 °F -4.0 °F 10.0 °F 92% 29.92 in 2.5 mi SSE 15.0 mph - 0.00 in Snow Light Snow
4:13 PM 12.0 °F -4.0 °F 10.0 °F 92% 29.92 in 3.0 mi SSE 15.0 mph - 0.00 in Snow Light Snow
4:55 PM 10.9 °F -7.0 °F 9.0 °F 92% 30.08 in 4.0 mi SSE 18.4 mph - 0.00 in Snow Light Snow
5:55 PM 10.0 °F -4.5 °F 8.1 °F 92% 30.11 in 4.0 mi SSE 11.5 mph - 0.00 in Snow Light Snow
6:08 PM 9.0 °F -7.9 °F 7.0 °F 92% 29.96 in 4.0 mi SSE 15.0 mph - 0.00 in Snow Light Snow
6:19 PM 9.0 °F -5.9 °F 7.0 °F 92% 29.97 in 2.5 mi SE 11.5 mph - 0.00 in Snow Light Snow
6:46 PM 9.0 °F -5.9 °F 7.0 °F 92% 29.98 in 4.0 mi SE 11.5 mph - 0.00 in Snow Light Snow
6:55 PM 9.0 °F -7.9 °F 7.0 °F 92% 30.14 in 4.0 mi SE 15.0 mph - 0.00 in Snow Light Snow
7:55 PM 8.1 °F -7.7 °F 6.1 °F 92% 30.15 in 4.0 mi SE 12.7 mph - 0.00 in Snow Light Snow
8:10 PM 8.1 °F -8.4 °F 5.0 °F 87% 29.97 in 2.5 mi ESE 13.8 mph - 0.00 in Snow Light Snow
8:20 PM 7.0 °F -11.0 °F 5.0 °F 92% 29.96 in 3.0 mi ESE 16.1 mph - 0.00 in Snow Light Snow
8:55 PM 6.1 °F -10.9 °F 3.9 °F 91% 30.19 in 2.5 mi ESE 13.8 mph - 0.00 in Snow Light Snow
9:13 PM 6.1 °F -10.9 °F 3.9 °F 91% 30.01 in 3.0 mi ESE 13.8 mph - 0.00 in Snow Light Snow
9:55 PM 5.0 °F -10.8 °F 3.0 °F 92% 30.24 in 6.0 mi ESE 11.5 mph - 0.00 in Snow Light Snow
10:55 PM 5.0 °F -12.3 °F 3.0 °F 92% 30.23 in 4.0 mi SE 13.8 mph - 0.00 in Snow Light Snow
11:55 PM 3.9 °F -13.0 °F 1.9 °F 91% 30.23 in 7.0 mi SE 12.7 mph - 0.00 in   Overcast